Weather History for KTIF - November, 2011

Change the Weather History Date:

Thursday, November 10, 2011

  Actual Average (KLBF) Record (KLBF)
Temperature  
Mean Temperature 36 °F 38 °F  
Max Temperature 55 °F 53 °F 79 °F (1876)
Min Temperature 17 °F 24 °F -8 °F (1986)
Degree Days  
Heating Degree Days 29 27  
Month to date heating degree days 245  
Since 1 July heating degree days 914  
Cooling Degree Days 0 0  
Month to date cooling degree days 0  
Year to date cooling degree days 768  
Moisture  
Dew Point 18 °F    
Average Humidity 59    
Maximum Humidity 93    
Minimum Humidity 20    
Precipitation  
Precipitation 0.00 in 0.02 in 0.36 in (1919)
Month to date precipitation 0.27  
Year to date precipitation 19.45  
Snow  
Snow 0.00 in 0.10 in 2.50 in (1919)
Month to date snowfall 1.2  
Since 1 July snowfall 3.5  
Since 1 September snowfall 3.5  
Snow Depth -    
Sea Level Pressure  
Sea Level Pressure 30.16 in    
Wind  
Wind Speed 3 mph (SW)    
Max Wind Speed 10 mph    
Max Gust Speed 17 mph    
Visibility 10 miles    
Events      
T = Trace of Precipitation, MM = Missing Value Source: NWS Daily Summary

Daily Weather History Graph

Daily Weather History Graph

Search for Another Location

Airport or City:

Trip Planner

Search our weather history database for the weather conditions in past years. The results will help you decide how hot, cold, wet, or windy it might be!

Date:

Astronomy

Nov. 10, 2011 Rise Set
Actual Time 7:25 AM CST 5:26 PM CST
Civil Twilight 6:56 AM CST 5:55 PM CST
Nautical Twilight 6:22 AM CST 6:29 PM CST
Astronomical Twilight 5:49 AM CST 7:01 PM CST
Moon 5:14 PM CST (11/10) 7:20 AM CST (11/10)
Length of Visible Light 10h 59m
Length of Day
10h 00m
Full, 100% of the Moon is Illuminated
Nov 10
Full
Nov 10
Full
Nov 18
Last Quarter
Nov 25
New
Dec 2
First Quarter

Hourly Weather History & Observations

Time (CST) Temp. Windchill Dew Point Humidity Pressure Visibility Wind Dir Wind Speed Gust Speed Precip Events Conditions
12:15 AM 21.2 °F 12.6 °F 17.6 °F 86% 30.33 in 10.0 mi West 6.9 mph - N/A   Clear
12:35 AM 23.0 °F - 19.4 °F 86% 30.33 in 10.0 mi Calm Calm - N/A   Clear
12:55 AM 24.8 °F - 19.4 °F 80% 30.33 in 10.0 mi Calm Calm - N/A   Clear
1:15 AM 23.0 °F - 19.4 °F 86% 30.32 in 10.0 mi Calm Calm - N/A   Clear
1:35 AM 23.0 °F - 19.4 °F 86% 30.31 in 10.0 mi Calm Calm - N/A   Clear
1:55 AM 21.2 °F - 19.4 °F 93% 30.31 in 10.0 mi Calm Calm - N/A   Clear
2:15 AM 21.2 °F - 17.6 °F 86% 30.31 in 10.0 mi Calm Calm - N/A   Clear
2:35 AM 21.2 °F - 17.6 °F 86% 30.31 in 10.0 mi Calm Calm - N/A   Clear
2:55 AM 21.2 °F - 19.4 °F 93% 30.31 in 10.0 mi Calm Calm - N/A   Clear
3:15 AM 19.4 °F - 17.6 °F 93% 30.30 in 10.0 mi Calm Calm - N/A   Clear
3:35 AM 21.2 °F - 17.6 °F 86% 30.29 in 10.0 mi Calm Calm - N/A   Clear
3:55 AM 19.4 °F - 17.6 °F 93% 30.29 in 10.0 mi Calm Calm - N/A   Clear
4:15 AM 19.4 °F - 17.6 °F 93% 30.28 in 10.0 mi Calm Calm - N/A   Clear
4:35 AM 21.2 °F - 17.6 °F 86% 30.28 in 10.0 mi Calm Calm - N/A   Clear
4:55 AM 19.4 °F - 17.6 °F 93% 30.27 in 10.0 mi Calm Calm - N/A   Clear
5:15 AM 19.4 °F - 15.8 °F 86% 30.27 in 10.0 mi Calm Calm - N/A   Clear
5:35 AM 19.4 °F - 15.8 °F 86% 30.27 in 10.0 mi Calm Calm - N/A   Clear
5:55 AM 19.4 °F - 17.6 °F 93% 30.27 in 10.0 mi Calm Calm - N/A   Clear
6:15 AM 19.4 °F - 15.8 °F 86% 30.27 in 10.0 mi Calm Calm - N/A   Clear
6:35 AM 19.4 °F - 15.8 °F 86% 30.27 in 10.0 mi Calm Calm - N/A   Clear
6:55 AM 19.4 °F - 15.8 °F 86% 30.27 in 10.0 mi Calm Calm - N/A   Clear
7:15 AM 17.6 °F - 14.0 °F 86% 30.27 in 10.0 mi Calm Calm - N/A   Clear
7:35 AM 19.4 °F - 15.8 °F 86% 30.27 in 10.0 mi Calm Calm - N/A   Clear
7:55 AM 19.4 °F - 15.8 °F 86% 30.27 in 10.0 mi Calm Calm - N/A   Clear
8:35 AM 24.8 °F - 21.2 °F 86% 30.26 in 10.0 mi Calm Calm - N/A   Clear
8:55 AM 26.6 °F - 23.0 °F 86% 30.26 in 10.0 mi Calm Calm - N/A   Clear
9:35 AM 32.0 °F - 26.6 °F 80% 30.25 in 10.0 mi Calm Calm - N/A   Clear
9:55 AM 33.8 °F - 28.4 °F 81% 30.25 in 10.0 mi Calm Calm - N/A   Clear
10:15 AM 37.4 °F - 23.0 °F 56% 30.24 in 10.0 mi Calm Calm - N/A   Clear
10:35 AM 41.0 °F - 23.0 °F 49% 30.23 in 10.0 mi Calm Calm - N/A   Clear
10:55 AM 42.8 °F - 23.0 °F 46% 30.21 in 10.0 mi Calm Calm - N/A   Clear
11:15 AM 44.6 °F 40.2 °F 21.2 °F 39% 30.21 in 10.0 mi West 8.1 mph - N/A   Clear
11:35 AM 44.6 °F 41.4 °F 21.2 °F 39% 30.20 in 10.0 mi WSW 5.8 mph - N/A   Clear
11:55 AM 46.4 °F 42.9 °F 21.2 °F 37% 30.19 in 10.0 mi WSW 6.9 mph - N/A   Clear
12:15 PM 48.2 °F - 19.4 °F 32% 30.17 in 10.0 mi West 9.2 mph - N/A   Clear
12:35 PM 50.0 °F - 19.4 °F 30% 30.16 in 10.0 mi SW 6.9 mph - N/A   Clear
12:55 PM 50.0 °F - 17.6 °F 28% 30.14 in 10.0 mi West 9.2 mph - N/A   Clear
1:15 PM 51.8 °F - 17.6 °F 26% 30.13 in 10.0 mi West 5.8 mph - N/A   Clear
1:35 PM 51.8 °F - 15.8 °F 24% 30.11 in 10.0 mi West 6.9 mph - N/A   Clear
1:55 PM 51.8 °F - 14.0 °F 22% 30.09 in 10.0 mi WSW 8.1 mph - N/A   Clear
2:15 PM 53.6 °F - 14.0 °F 21% 30.08 in 10.0 mi SW 5.8 mph - N/A   Clear
2:35 PM 53.6 °F - 14.0 °F 21% 30.07 in 10.0 mi WSW 8.1 mph 16.1 mph N/A   Clear
2:55 PM 53.6 °F - 14.0 °F 21% 30.05 in 10.0 mi SW 6.9 mph - N/A   Clear
3:15 PM 55.4 °F - 14.0 °F 20% 30.04 in 10.0 mi WSW 9.2 mph - N/A   Clear
3:35 PM 53.6 °F - 14.0 °F 21% 30.03 in 10.0 mi SW 9.2 mph - N/A   Clear
3:55 PM 53.6 °F - 14.0 °F 21% 30.02 in 10.0 mi SW 8.1 mph - N/A   Clear
4:15 PM 53.6 °F - 15.8 °F 22% 30.01 in 10.0 mi SW 10.4 mph - N/A   Clear
4:35 PM 53.6 °F - 17.6 °F 24% 30.00 in 10.0 mi SSW 9.2 mph 17.3 mph N/A   Clear
4:55 PM 51.8 °F - 19.4 °F 28% 29.99 in 10.0 mi South 6.9 mph - N/A   Clear
5:15 PM 50.0 °F - 19.4 °F 30% 29.99 in 10.0 mi Calm Calm - N/A   Clear
5:35 PM 44.6 °F 40.7 °F 17.6 °F 34% 29.98 in 10.0 mi South 6.9 mph - N/A   Clear
5:55 PM 42.8 °F 38.0 °F 17.6 °F 36% 29.97 in 10.0 mi South 8.1 mph - N/A   Clear
6:15 PM 42.8 °F 38.6 °F 17.6 °F 36% 29.96 in 10.0 mi South 6.9 mph - N/A   Clear
6:35 PM 41.0 °F - 19.4 °F 42% 29.96 in 10.0 mi Calm Calm - N/A   Clear
6:55 PM 42.8 °F 38.6 °F 19.4 °F 39% 29.95 in 10.0 mi South 6.9 mph - N/A   Clear
7:15 PM 41.0 °F 35.8 °F 19.4 °F 42% 29.94 in 10.0 mi South 8.1 mph - N/A   Clear
7:35 PM 41.0 °F 36.4 °F 19.4 °F 42% 29.93 in 10.0 mi South 6.9 mph - N/A   Clear
7:55 PM 37.4 °F - 19.4 °F 48% 29.92 in 10.0 mi Calm Calm - N/A   Clear
8:15 PM 37.4 °F - 19.4 °F 48% 29.92 in 10.0 mi Calm Calm - N/A   Clear
8:35 PM 35.6 °F - 19.4 °F 52% 29.90 in 10.0 mi Calm Calm - N/A   Clear
8:55 PM 35.6 °F - 19.4 °F 52% 29.90 in 10.0 mi Calm Calm - N/A   Clear
9:15 PM 35.6 °F 29.2 °F 19.4 °F 52% 29.90 in 10.0 mi SSW 8.1 mph - N/A   Clear
9:35 PM 35.6 °F - 19.4 °F 52% 29.89 in 10.0 mi Calm Calm - N/A   Clear
9:55 PM 33.8 °F - 19.4 °F 56% 29.89 in 10.0 mi Calm Calm - N/A   Clear
10:15 PM 33.8 °F - 19.4 °F 56% 29.87 in 10.0 mi Calm Calm - N/A   Clear
10:35 PM 37.4 °F 29.8 °F 21.2 °F 52% 29.86 in 10.0 mi WSW 11.5 mph - N/A   Clear
10:55 PM 39.2 °F 32.5 °F 19.4 °F 45% 29.86 in 10.0 mi West 10.4 mph - N/A   Clear
11:15 PM 39.2 °F 33.6 °F 19.4 °F 45% 29.86 in 10.0 mi West 8.1 mph - N/A   Clear
11:35 PM 37.4 °F 31.4 °F 19.4 °F 48% 29.86 in 10.0 mi WNW 8.1 mph - N/A   Clear
11:55 PM 35.6 °F 28.6 °F 19.4 °F 52% 29.85 in 10.0 mi West 9.2 mph - N/A   Clear